User: anonymous   Login
Location: Newark
(51.1667°N, 4.4833°E)
Time: 10:46:58
(UTC+00:00)
Language:

XW-2F - Orbit

View from above orbital plane
View from above orbital plane
View from above satellite
View from above satellite

Ground track
Ground track

The orbit data is extracted from the following two-line orbital elements,

1 40910U 15049M   19349.10170161  .00000715  00000-0  38922-4 0  9997
2 40910  97.4647 350.2427 0013260 288.2006 144.6873 15.17591533234220
Epoch (UTC): 15 December 2019 02:26:27
Eccentricity: 0.0013260
inclination: 97.4647°
perigee height: 504 km
apogee height: 522 km
right ascension of ascending node: 350.2427°
argument of perigee: 288.2006°
revolutions per day: 15.17591533
mean anomaly at epoch: 144.6873°
orbit number at epoch: 23422

The dashed part of the orbit path shows where the satellite is in the earth's shadow,  

DLR